Location: Bemmer
(51.5498°N, 5.6249°E)
Time: 11:15:33
(UTC+00:00)

Okean 1-7 - Pass Details

Date: 03 March 2021
Orbit: 589 x 619 km, 82.5° (Epoch: 16 April)

Event Time Altitude Azimuth Distance (km) Brightness Sun altitude
Rises 17:56:02 0° 357° (N) 2,903 6.5 -6.2°
Reaches altitude 10° 17:58:37 10° 11° (N) 1,989 5.5 -6.6°
Maximum altitude 18:02:17 25° 67° (ENE) 1,246 4.1 -7.1°
Drops below altitude 10° 18:05:54 10° 124° (SE) 1,962 5.1 -7.7°
Sets 18:08:25 0° 137° (SE) 2,855 6.1 -8.1°
